Kirksville, MO

1:34 AM CDT on March 25, 2017 (GMT -0500)
Kirksville Regional

Weather History for KIRK - December, 2011

Change the Weather History Date:

Monday, December 19, 2011

  Actual Average Record
Temperature  
Mean Temperature 42 °F 28 °F  
Max Temperature 49 °F 36 °F 61 °F (1941)
Min Temperature 34 °F 19 °F -18 °F (1983)
Degree Days  
Heating Degree Days 23 37  
Month to date heating degree days 581 663  
Since 1 July heating degree days 1693 1884  
Cooling Degree Days 0 0  
Month to date cooling degree days 0 0  
Year to date cooling degree days 1197 939  
Moisture  
Dew Point 33 °F    
Average Humidity 75    
Maximum Humidity 89    
Minimum Humidity 60    
Precipitation  
Precipitation 0.02 in 0.06 in 0.95 in (1933)
Month to date precipitation 2.18 1.16  
Year to date precipitation 37.03 38.72  
Sea Level Pressure  
Sea Level Pressure 30.06 in    
Wind  
Wind Speed 10 mph (NW)    
Max Wind Speed 18 mph    
Max Gust Speed 22 mph    
Visibility 9 miles    
Events Snow    
T = Trace of Precipitation, MM = Missing Value Source: NWS Daily Summary

Daily Weather History Graph

Daily Weather History Graph

Search for Another Location

Airport or City:

Trip Planner

Search our weather history database for the weather conditions in past years. The results will help you decide how hot, cold, wet, or windy it might be!

Date:

Astronomy

Dec. 19, 2011 Rise Set
Actual Time 7:27 AM CST 4:46 PM CST
Civil Twilight 6:56 AM CST 5:17 PM CST
Nautical Twilight 6:22 AM CST 5:51 PM CST
Astronomical Twilight 5:49 AM CST 6:24 PM CST
Moon 1:38 AM CST (12/19) 12:45 PM CST (12/19)
Length of Visible Light 10h 20m
Length of Day
9h 19m
Waning Crescent, 31% of the Moon is Illuminated
Dec 19
Waning Crescent
Dec 24
New
Jan 1
First Quarter
Jan 9
Full
Jan 16
Last Quarter

Hourly Weather History & Observations

Time (CST) Temp. Windchill Dew Point Humidity Pressure Visibility Wind Dir Wind Speed Gust Speed Precip Events Conditions
12:55 AM 48.9 °F - 35.1 °F 59% 29.94 in 10.0 mi SW 10.4 mph - N/A   Mostly Cloudy
1:55 AM 48.9 °F - 35.1 °F 59% 29.93 in 10.0 mi SW 10.4 mph 18.4 mph N/A   Overcast
2:55 AM 48.9 °F - 35.1 °F 59% 29.92 in 10.0 mi SW 12.7 mph - N/A   Overcast
3:55 AM 46.9 °F - 34.0 °F 61% 29.92 in 10.0 mi SW 11.5 mph - N/A   Mostly Cloudy
4:55 AM 45.0 °F 40.1 °F 34.0 °F 65% 29.94 in 10.0 mi SW 9.2 mph - N/A   Clear
5:55 AM 44.1 °F 39.5 °F 33.1 °F 65% 29.95 in 10.0 mi SW 8.1 mph - N/A   Clear
6:55 AM 42.1 °F 38.4 °F 33.1 °F 70% 29.97 in 10.0 mi SW 5.8 mph - N/A   Scattered Clouds
7:55 AM 44.1 °F 40.8 °F 33.1 °F 65% 29.99 in 10.0 mi SW 5.8 mph - N/A   Overcast
8:55 AM 45.0 °F 41.2 °F 34.0 °F 65% 30.01 in 10.0 mi WSW 6.9 mph - N/A   Overcast
9:55 AM 46.0 °F 43.1 °F 35.1 °F 66% 30.04 in 10.0 mi SW 5.8 mph - N/A   Mostly Cloudy
10:40 AM 46.4 °F 41.5 °F 35.6 °F 66% 30.04 in 10.0 mi West 10.4 mph - N/A   Mostly Cloudy
10:55 AM 46.9 °F - 35.1 °F 63% 30.04 in 10.0 mi West 10.4 mph - N/A   Mostly Cloudy
11:03 AM 46.4 °F 41.5 °F 35.6 °F 66% 30.03 in 10.0 mi WNW 10.4 mph - N/A   Scattered Clouds
11:55 AM 48.0 °F - 37.0 °F 66% 30.04 in 10.0 mi NNW 8.1 mph - N/A   Clear
12:55 PM 45.0 °F 40.1 °F 36.0 °F 71% 30.04 in 10.0 mi North 9.2 mph - N/A   Partly Cloudy
1:55 PM 43.0 °F 37.2 °F 35.1 °F 74% 30.06 in 10.0 mi North 10.4 mph - N/A   Overcast
2:55 PM 42.1 °F 34.5 °F 33.1 °F 70% 30.05 in 10.0 mi NNE 15.0 mph - N/A   Scattered Clouds
3:55 PM 41.0 °F 35.2 °F 33.1 °F 73% 30.12 in 10.0 mi North 9.2 mph - N/A   Overcast
4:55 PM 39.9 °F 37.8 °F 33.1 °F 77% 30.17 in 10.0 mi NW 3.5 mph - N/A   Overcast
5:28 PM 39.2 °F 33.6 °F 33.8 °F 81% 30.14 in 10.0 mi North 8.1 mph - N/A   Overcast
5:55 PM 39.9 °F 32.9 °F 33.1 °F 77% 30.15 in 10.0 mi North 11.5 mph - N/A   Overcast
6:55 PM 39.2 °F 31.6 °F 33.8 °F 81% 30.13 in 10.0 mi North 12.7 mph - N/A   Overcast
7:55 PM 37.0 °F 28.5 °F 30.9 °F 79% 30.19 in 10.0 mi North 13.8 mph - N/A   Overcast
8:55 PM 35.1 °F 26.4 °F 30.0 °F 82% 30.20 in 10.0 mi NNE 12.7 mph - N/A   Overcast
9:55 PM 34.0 °F 24.2 °F 28.9 °F 82% 30.19 in 3.0 mi NNE 15.0 mph - 0.01 in Snow Light Snow
10:05 PM 33.8 °F 25.3 °F 28.4 °F 81% 30.16 in 2.5 mi NNE 11.5 mph - 0.00 in Snow Light Snow
10:18 PM 33.8 °F 25.8 °F 30.2 °F 87% 30.15 in 4.0 mi NNE 10.4 mph - 0.01 in Snow Light Snow
10:55 PM 34.0 °F 25.5 °F 30.0 °F 85% 30.16 in 7.0 mi NE 11.5 mph - 0.01 in   Overcast
11:55 PM 34.0 °F 25.0 °F 30.0 °F 85% 30.17 in 8.0 mi NNE 12.7 mph - 0.00 in   Overcast